Miscellaneous Local Product
Issued by NWS Hastings, NE

Home | Current Version | Previous Version | Text Only | Print | Product List | Glossary Off
Versions: 1 2 3 4 5 6 7 8 9 10 11 12 13 14 15 16 17 18 19 20 21 22 23 24 25 26 27 28 29 30 31 32 33 34 35 36 37 38 39 40 41 42 43 44 45 46 47 48 49 50

000
AXUS43 KGID 222002
MISGRI

GID CWA HOURLY WEATHER ROUNDUP
NATIONAL WEATHER SERVICE HASTINGS NE
200 PM CST SUN JAN 22 2017

NOTE: "FAIR" INDICATES FEW OR NO CLOUDS BELOW 12,000 FEET WITH NO
SIGNIFICANT WEATHER AND/OR OBSTRUCTIONS TO VISIBILITY.

...SOUTH CENTRAL NEBRASKA...

CITY           SKY/WX    TMP DP  RH WIND       PRES   REMARKS
GRAND ISLAND   SUNNY     46  30  53 N13       29.82F
HASTINGS       SUNNY     45  30  55 N17       29.83F
KEARNEY        SUNNY     48  30  49 NW10G18   29.82F
ORD            SUNNY     46  30  53 NW14      29.80F
YORK           SUNNY     39  36  87 NW15      29.82S WCI  31
AURORA         SUNNY     42  33  69 N13       29.82F
LEXINGTON      SUNNY     48  31  51 NW12      29.84S
HOLDREGE       SUNNY     47  32  55 NW14      29.83F
HEBRON         MOSUNNY   41  33  73 N13       29.81F

...NEBRASKA PANHANDLE...

CITY           SKY/WX    TMP DP  RH WIND       PRES   REMARKS
CHADRON        SUNNY     38  28  67 NW16      29.87F WCI  29
ALLIANCE       SUNNY     45  24  43 W18       29.85F
SCOTTSBLUFF    SUNNY     45  20  36 W16       29.88F
SIDNEY         SUNNY     45  20  36 NW20      29.88F

...WESTERN AND NORTH CENTRAL NEBRASKA...

CITY           SKY/WX    TMP DP  RH WIND       PRES   REMARKS
VALENTINE      SUNNY     42  27  55 NW14      29.83S
AINSWORTH      SUNNY     44  29  55 NW14      29.82S
ONEILL         SUNNY     44  30  58 NW10      29.81F
BROKEN BOW     SUNNY     47  31  53 NW13      29.81F
IMPERIAL       SUNNY     46  26  45 NW15      29.87F
NORTH PLATTE   SUNNY     48  30  49 W12       29.85F
MCCOOK         SUNNY     49  27  42 NW15      29.86F

...EASTERN NEBRASKA...

CITY           SKY/WX    TMP DP  RH WIND       PRES   REMARKS
NORFOLK        SUNNY     41  31  67 NW10      29.80F
SO SIOUX CITY  CLOUDY    36  32  85 NW16      29.80S WCI  26
TEKAMAH        CLOUDY    37  33  85 NW15      29.80S WCI  28
COLUMBUS       PTSUNNY   37  34  87 NW10      29.83S WCI  30
ALBION         SUNNY     43   6  21 N8G17     29.80F
OMAHA EPPLEY   CLOUDY    37  31  78 N8        29.80R WCI  31
OFFUTT AFB     CLOUDY    38  37  98 NW12      29.79R WCI  30
MILLARD        CLOUDY    39  34  82 NW10G20   29.80R WCI  33
LINCOLN        CLOUDY    38  32  79 NW15      29.83R WCI  29
NEBRASKA CITY  CLOUDY    37  32  84 N13       29.78S WCI  28
BEATRICE       CLOUDY    38  34  84 NW16      29.81R WCI  29
FALLS CITY     CLOUDY    38  32  79 NW14G21   29.77F WCI  30

...NORTHERN KANSAS...

CITY           SKY/WX    TMP DP  RH WIND       PRES   REMARKS
GOODLAND       SUNNY     47  26  44 N16       29.88F
HILL CITY      SUNNY     51  27  39 N14       29.87S
NORTON         CLEAR     48  27  43 NW14      29.85S
PHILLIPSBURG   SUNNY     52  30  43 W13       29.85F
SMITH CENTER   SUNNY     48  30  49 NW14G21   29.84F
HAYS           SUNNY     51  25  36 N17G24    29.84F
RUSSELL        SUNNY     52  26  36 N20G25    29.82F
CONCORDIA      SUNNY     45  34  65 N17G24    29.81S
SALINA         SUNNY     50  32  50 N21G29    29.80S
TOPEKA         CLOUDY    37  31  78 NW15G23   29.77S WCI  28



USA.gov is the U.S. government's official web portal to all federal, state and local government web resources and services.